GW7041 Weather Reports


time (UTC)temp
F
wind
direction
speed
knots
gust
knots
rain 1hr
in
rain 24hr
in
rain mn
in
humidity
%
barometer
mb
20260510174922 69 4 3.5 5.2 0.00 0.00 0.00 45 1020.7
20260510174422 68 10 0.9 3.5 0.00 0.00 0.00 46 1020.7
20260510173922 69 359 3.5 4.3 0.00 0.00 0.00 46 1020.3
20260510172937 68 151 1.7 4.3 0.00 0.00 0.00 44 1020.3
20260510172422 68 287 1.7 3.5 0.00 0.00 0.00 45 1020.3
20260510171922 68 22 1.7 5.2 0.00 0.00 0.00 47 1020.3
20260510171422 68 29 2.6 4.3 0.00 0.00 0.00 45 1020.3
20260510170922 68 31 1.7 7.8 0.00 0.00 0.00 50 1020.3
20260510170422 68 5 5.2 5.2 0.00 0.00 0.00 46 1020.3
20260510165922 68 216 0.9 3.5 0.00 0.00 0.00 48 1020.3
20260510165422 67 201 1.7 3.5 0.00 0.00 0.00 49 1020.3
20260510164922 66 106 1.7 5.2 0.00 0.00 0.00 50 1020.3
20260510164422 67 318 1.7 4.3 0.00 0.00 0.00 46 1020.3
20260510163925 67 309 3.5 4.3 0.00 0.00 0.00 51 1020.3
20260510163422 65 354 3.5 4.3 0.00 0.00 0.00 49 1020.3
20260510162922 66 89 1.7 7.8 0.00 0.00 0.00 49 1020.3
20260510162423 66 12 5.2 7.0 0.00 0.00 0.00 47 1020.0
20260510161926 66 296 3.5 3.5 0.00 0.00 0.00 51 1020.3
20260510161422 66 287 0.9 4.3 0.00 0.00 0.00 51 1020.3
20260510160923 65 237 0.9 5.2 0.00 0.00 0.00 53 1020.3
20260510160422 65 352 5.2 5.2 0.00 0.00 0.00 53 1020.3
20260510155924 65 56 2.6 6.1 0.00 0.00 0.00 53 1020.0
20260510155422 65 315 6.1 8.7 0.00 0.00 0.00 57 1019.6
20260510154923 64 10 3.5 8.7 0.00 0.00 0.00 54 1019.6
20260510154422 65 89 0.0 8.7 0.00 0.00 0.00 55 1020.0
20260510153922 63 215 1.7 4.3 0.00 0.00 0.00 58 1020.0
20260510153422 64 217 0.0 5.2 0.00 0.00 0.00 59 1020.0
20260510152922 64 336 2.6 6.1 0.00 0.00 0.00 57 1020.0
20260510152422 63 340 2.6 3.5 0.00 0.00 0.00 60 1020.0
20260510151923 63 27 4.3 4.3 0.00 0.00 0.00 63 1020.0
20260510151422 63 56 1.7 7.8 0.00 0.00 0.00 63 1019.6
20260510150922 63 2 2.6 6.1 0.00 0.00 0.00 64 1020.0
20260510150422 62 99 0.9 5.2 0.00 0.00 0.00 63 1020.3
20260510145922 63 249 0.9 5.2 0.00 0.00 0.00 64 1020.0
20260510145422 63 65 0.0 3.5 0.00 0.00 0.00 66 1020.3
20260510144922 62 15 0.0 4.3 0.00 0.00 0.00 65 1020.3
20260510144422 62 70 0.0 4.3 0.00 0.00 0.00 67 1020.3
20260510143923 62 353 0.9 3.5 0.00 0.00 0.00 68 1020.3
20260510143422 62 57 1.7 7.0 0.00 0.00 0.00 65 1020.3
20260510142923 62 323 2.6 5.2 0.00 0.00 0.00 67 1020.3
20260510142422 62 55 2.6 8.7 0.00 0.00 0.00 67 1020.3
20260510141922 62 60 3.5 4.3 0.00 0.00 0.00 69 1020.3
20260510141422 62 4 1.7 5.2 0.00 0.00 0.00 67 1020.3
20260510140923 62 48 6.1 7.8 0.00 0.00 0.00 68 1020.3
20260510140423 62 287 2.6 6.1 0.00 0.00 0.00 70 1020.0
20260510135922 62 108 0.0 1.7 0.00 0.00 0.00 71 1019.6
20260510135422 62 9 5.2 5.2 0.00 0.00 0.00 74 1019.6
20260510134923 62 162 0.9 5.2 0.00 0.00 0.00 73 1019.6
20260510134422 61 46 0.9 4.3 0.00 0.00 0.00 72 1019.6
20260510133922 62 32 4.3 4.3 0.00 0.00 0.00 72 1019.3
20260510133422 62 151 1.7 2.6 0.00 0.00 0.00 74 1019.3
20260510132922 61 3 0.9 6.1 0.00 0.00 0.00 75 1019.3
20260510132422 61 3 0.9 2.6 0.00 0.00 0.00 76 1019.6
20260510131922 61 343 0.9 4.3 0.00 0.00 0.00 77 1019.6
20260510131422 61 24 3.5 7.8 0.00 0.00 0.00 76 1019.3
20260510130922 61 38 4.3 4.3 0.00 0.00 0.00 78 1019.3
20260510130424 60 44 3.5 5.2 0.00 0.00 0.00 79 1019.3
20260510125923 60 353 4.3 4.3 0.00 0.00 0.00 80 1019.3
20260510125422 60 48 0.0 2.6 0.00 0.00 0.00 80 1019.3
20260510124923 59 9 1.7 1.7 0.00 0.00 0.00 81 1019.0
20260510124422 60 354 2.6 2.6 0.00 0.00 0.00 80 1019.0
20260510123922 60 66 0.9 3.5 0.00 0.00 0.00 80 1018.6
20260510123422 59 22 5.2 5.2 0.00 0.00 0.00 81 1018.3
20260510122923 59 102 1.7 2.6 0.00 0.00 0.00 83 1018.3
20260510122422 59 50 2.6 3.5 0.00 0.00 0.00 83 1017.9
20260510121922 58 42 2.6 4.3 0.00 0.00 0.00 85 1018.3
20260510121422 58 352 2.6 2.6 0.00 0.00 0.00 85 1018.3
20260510120922 58 66 0.0 1.7 0.00 0.00 0.00 85 1018.3
20260510120422 58 44 0.9 2.6 0.00 0.00 0.00 85 1017.9
20260510115922 58 83 0.9 1.7 0.00 0.00 0.00 85 1018.3
20260510115422 58 33 0.0 2.6 0.00 0.00 0.00 85 1017.9
20260510114922 58 22 0.0 1.7 0.00 0.00 0.00 84 1017.9
20260510114423 58 44 0.0 0.9 0.00 0.00 0.00 84 1017.9
20260510113922 58 89 0.0 1.7 0.00 0.00 0.00 84 1017.9
20260510113422 58 23 0.0 2.6 0.00 0.00 0.00 83 1017.6
20260510112922 58 43 1.7 3.5 0.00 0.00 0.00 83 1017.9
20260510112422 58 26 4.3 4.3 0.00 0.00 0.00 83 1017.6
20260510111922 59 31 1.7 2.6 0.00 0.00 0.00 82 1017.3
20260510111422 59 31 1.7 2.6 0.00 0.00 0.00 81 1017.3
20260510110923 59 23 1.7 4.3 0.00 0.00 0.00 81 1016.9
20260510110422 59 35 0.0 3.5 0.00 0.00 0.00 81 1016.9
20260510105922 59 36 1.7 4.3 0.00 0.00 0.00 80 1016.9
20260510105422 59 64 1.7 2.6 0.00 0.00 0.00 79 1016.9
20260510104922 59 191 0.0 3.5 0.00 0.00 0.00 79 1016.9
20260510104422 59 36 1.7 4.3 0.00 0.00 0.00 78 1016.9
20260510103922 60 17 1.7 4.3 0.00 0.00 0.00 77 1016.9
20260510103422 60 25 0.0 2.6 0.00 0.00 0.00 78 1016.9
20260510102922 60 31 1.7 2.6 0.00 0.00 0.00 77 1016.9
20260510102422 59 9 1.7 1.7 0.00 0.00 0.00 78 1016.9
20260510101922 60 353 1.7 1.7 0.00 0.00 0.00 77 1016.9
20260510101422 60 10 0.9 0.9 0.00 0.00 0.00 76 1016.9
20260510100922 60 10 0.0 0.9 0.00 0.00 0.00 75 1016.6
20260510100422 60 14 0.9 1.7 0.00 0.00 0.00 75 1016.6
20260510095924 60 338 0.9 1.7 0.00 0.00 0.00 74 1016.6
20260510095422 60 25 0.0 0.9 0.00 0.00 0.00 74 1016.3
20260510094922 60 13 1.7 1.7 0.00 0.00 0.00 74 1015.9
20260510094422 61 140 0.0 0.0 0.00 0.00 0.00 73 1016.3
20260510093922 61 205 0.0 0.9 0.00 0.00 0.00 73 1016.3
20260510093422 61 0 0.0 1.7 0.00 0.00 0.00 73 1015.9
20260510092922 62 30 0.0 1.7 0.00 0.00 0.00 72 1015.6
20260510092422 62 6 0.9 1.7 0.00 0.00 0.00 70 1015.6
20260510091922 62 25 0.0 0.9 0.00 0.00 0.00 71 1015.6
20260510091422 62 8 0.9 2.6 0.00 0.00 0.00 70 1015.9
20260510090924 62 11 0.0 1.7 0.00 0.00 0.00 70 1015.6
20260510090422 62 25 0.0 0.9 0.00 0.00 0.00 69 1015.6
20260510085922 62 205 0.0 0.9 0.00 0.00 0.00 69 1015.6
20260510085422 62 235 0.0 0.0 0.00 0.00 0.00 68 1015.2
20260510084922 63 199 0.0 0.9 0.00 0.00 0.00 67 1015.2
20260510084423 63 147 0.0 0.0 0.00 0.00 0.00 68 1015.2
20260510083922 63 14 0.9 1.7 0.00 0.00 0.00 67 1015.2
20260510083423 63 11 0.9 1.7 0.00 0.00 0.00 66 1015.2
20260510082922 64 10 0.9 1.7 0.00 0.00 0.00 67 1014.9
20260510082422 64 11 1.7 1.7 0.00 0.00 0.00 67 1014.9
20260510081922 63 2 1.7 1.7 0.00 0.00 0.00 66 1015.2
20260510081422 63 1 0.9 1.7 0.00 0.00 0.00 68 1014.9
20260510080922 63 0 0.0 0.9 0.00 0.00 0.00 68 1014.9
20260510080422 63 37 0.0 0.9 0.00 0.00 0.00 68 1014.6
20260510075923 63 217 0.0 0.0 0.00 0.00 0.00 69 1014.9
20260510075422 63 25 0.0 1.7 0.00 0.00 0.00 69 1014.9
20260510074922 63 17 0.9 0.9 0.00 0.00 0.00 69 1014.9
20260510074424 63 224 0.0 0.9 0.00 0.00 0.00 70 1015.2
20260510073923 63 164 0.0 0.0 0.00 0.00 0.00 69 1015.2
20260510073422 63 333 0.0 0.0 0.00 0.00 0.00 69 1015.2
20260510072923 63 322 0.0 0.9 0.00 0.00 0.00 70 1015.2
20260510072424 63 340 0.9 1.7 0.00 0.00 0.00 69 1015.2
20260510071922 62 0 0.0 0.9 0.00 0.00 0.00 70 1014.9
20260510071423 62 29 0.0 0.0 0.00 0.00 0.00 70 1014.9
20260510070922 62 25 0.0 0.0 0.00 0.00 0.00 71 1015.2
20260510070423 62 25 0.0 0.0 0.00 0.00 0.00 71 1015.2
20260510065922 62 113 0.0 0.0 0.00 0.00 0.00 70 1014.9
20260510065422 62 115 1.7 2.6 0.00 0.00 0.00 71 1014.9
20260510064922 63 117 0.0 0.0 0.00 0.00 0.00 70 1014.6
20260510064422 63 31 0.9 1.7 0.00 0.00 0.00 68 1014.9
20260510063922 64 0 0.9 1.7 0.00 0.00 0.00 67 1014.9
20260510063423 64 129 0.0 1.7 0.00 0.00 0.00 67 1014.6
20260510062922 64 125 1.7 1.7 0.00 0.00 0.00 67 1014.6
20260510062422 64 182 0.9 0.9 0.00 0.00 0.00 66 1014.9
20260510061924 64 119 0.0 0.9 0.00 0.00 0.00 66 1014.9
20260510061422 64 112 1.7 1.7 0.00 0.00 0.00 66 1014.9
20260510060922 64 142 0.9 1.7 0.00 0.00 0.00 66 1014.6
20260510060422 64 161 0.9 1.7 0.00 0.00 0.00 65 1014.6
20260510055922 64 126 0.0 1.7 0.00 0.00 0.00 65 1014.6
20260510055422 64 129 0.0 0.9 0.00 0.00 0.00 65 1014.9
20260510054924 64 86 0.9 0.9 0.00 0.00 0.00 67 1014.9
20260510054423 63 37 0.0 1.7 0.00 0.00 0.00 69 1014.9
20260510053922 63 7 1.7 3.5 0.00 0.00 0.00 72 1014.9
20260510053422 63 209 0.0 0.0 0.00 0.00 0.00 70 1014.6
20260510052922 63 175 0.0 0.9 0.00 0.00 0.00 70 1014.9
20260510052422 63 169 0.9 1.7 0.00 0.00 0.00 71 1014.6
20260510051922 63 160 0.0 0.9 0.00 0.00 0.00 72 1014.6
20260510051422 63 343 0.0 0.9 0.00 0.00 0.00 71 1014.9
20260510050922 63 315 0.0 0.9 0.00 0.00 0.00 72 1014.6
20260510050423 63 327 0.9 0.9 0.00 0.00 0.00 72 1014.6
20260510045923 63 269 0.0 1.7 0.00 0.00 0.00 72 1014.2
20260510045422 63 174 0.0 1.7 0.00 0.00 0.00 72 1014.2
20260510044922 63 197 0.9 0.9 0.00 0.00 0.00 71 1014.2
20260510044422 64 229 0.0 0.9 0.00 0.00 0.00 71 1014.6
20260510043922 64 230 0.0 1.7 0.00 0.00 0.00 72 1014.2
20260510043422 64 269 0.9 1.7 0.00 0.00 0.00 70 1014.2
20260510042923 65 285 1.7 2.6 0.00 0.00 0.00 69 1014.2
20260510042422 64 177 0.9 2.6 0.00 0.00 0.00 69 1014.2
20260510041922 63 233 0.9 2.6 0.00 0.00 0.00 70 1014.2
20260510041422 63 201 0.9 1.7 0.00 0.00 0.00 72 1013.9
20260510040922 63 190 0.9 1.7 0.00 0.00 0.00 72 1014.2
20260510040422 62 204 0.9 0.9 0.00 0.00 0.00 72 1014.2
20260510035922 62 195 0.0 0.9 0.00 0.00 0.00 73 1014.2
20260510035422 62 220 0.9 1.7 0.00 0.00 0.00 72 1014.2
20260510034922 62 245 0.9 0.9 0.00 0.00 0.00 73 1014.2
20260510034422 62 251 0.9 1.7 0.00 0.00 0.00 72 1014.2
20260510033922 61 279 0.0 0.9 0.00 0.00 0.00 74 1014.2
20260510033422 61 195 0.0 0.0 0.00 0.00 0.00 72 1013.9
20260510032922 61 195 0.0 0.0 0.00 0.00 0.00 72 1013.9
20260510032422 62 224 0.0 0.0 0.00 0.00 0.00 71 1014.2
20260510031922 62 224 0.0 0.0 0.00 0.00 0.00 72 1014.2
20260510031423 62 234 0.0 0.0 0.00 0.00 0.00 70 1013.9
20260510030923 63 202 0.0 0.0 0.00 0.00 0.00 70 1013.5
20260510030422 63 231 0.9 0.9 0.00 0.00 0.00 70 1013.5
20260510025922 63 235 0.0 0.9 0.00 0.00 0.00 70 1013.9
20260510025423 63 199 0.0 0.0 0.00 0.00 0.00 69 1013.5
20260510024922 63 224 0.0 0.9 0.00 0.00 0.00 68 1013.5
20260510024422 64 195 0.0 0.0 0.00 0.00 0.00 64 1013.2
20260510023922 64 315 0.0 0.0 0.00 0.00 0.00 62 1012.9
20260510023422 65 315 0.0 0.0 0.00 0.00 0.00 61 1013.2
20260510022922 65 315 0.0 0.0 0.00 0.00 0.00 61 1012.9
20260510022422 65 330 0.0 0.9 0.00 0.00 0.00 64 1012.9
20260510021922 65 337 0.0 0.0 0.00 0.00 0.00 65 1012.5
20260510021423 66 293 0.0 0.9 0.00 0.00 0.00 65 1012.5
20260510020923 66 224 0.0 0.9 0.00 0.00 0.00 63 1012.5
20260510020422 67 284 0.0 0.0 0.00 0.00 0.00 61 1012.2
20260510015922 68 217 0.0 0.9 0.00 0.00 0.00 60 1011.9
20260510015423 68 204 0.0 0.9 0.00 0.00 0.00 60 1011.9
20260510014922 68 205 0.0 1.7 0.00 0.00 0.00 60 1011.5
20260510014422 68 224 0.0 0.0 0.00 0.00 0.00 58 1011.5
20260510013922 69 224 0.0 0.0 0.00 0.00 0.00 58 1011.2
20260510013422 69 212 0.0 0.0 0.00 0.00 0.00 57 1011.2
20260510012922 70 212 0.0 0.0 0.00 0.00 0.00 55 1011.2
20260510012423 71 230 0.0 0.9 0.00 0.00 0.00 55 1010.8
20260510011923 72 143 1.7 1.7 0.00 0.00 0.00 53 1010.8
20260510011422 73 240 0.0 0.0 0.00 0.00 0.00 50 1010.8
20260510010922 74 250 0.0 1.7 0.00 0.00 0.00 48 1010.2
20260510010424 75 213 0.0 0.9 0.00 0.00 0.00 47 1010.5
20260510005923 77 205 0.9 1.7 0.00 0.00 0.00 43 1010.2
20260510005423 79 230 0.0 0.0 0.00 0.00 0.00 41 1010.2
20260510004923 80 239 0.0 0.9 0.00 0.00 0.00 41 1009.8
20260510004422 81 253 0.9 1.7 0.00 0.00 0.00 38 1009.8
20260510003922 80 255 0.9 1.7 0.00 0.00 0.00 38 1009.8
20260510003422 80 236 0.9 1.7 0.00 0.00 0.00 37 1009.5
20260510002922 80 223 1.7 1.7 0.00 0.00 0.00 37 1009.8
20260510002422 80 209 1.7 3.5 0.00 0.00 0.00 36 1009.8
20260510001922 81 212 1.7 2.6 0.00 0.00 0.00 35 1009.5
20260510001422 82 266 0.0 2.6 0.00 0.00 0.00 33 1009.5
20260510000922 82 234 0.9 2.6 0.00 0.00 0.00 34 1009.5
20260510000422 82 244 1.7 3.5 0.00 0.00 0.00 34 1009.5
20260509235923 82 224 0.0 2.6 0.00 0.00 0.00 34 1009.5
20260509235422 82 265 1.7 3.5 0.00 0.00 0.00 34 1009.8
20260509234922 82 230 1.7 2.6 0.00 0.00 0.00 35 1009.5
20260509234422 82 232 1.7 2.6 0.00 0.00 0.00 34 1009.5
20260509233923 81 263 1.7 3.5 0.00 0.00 0.00 35 1009.5
20260509233422 81 271 2.6 3.5 0.00 0.00 0.00 34 1009.5
20260509232922 80 279 4.3 5.2 0.00 0.00 0.00 33 1009.5
20260509232423 82 272 4.3 5.2 0.00 0.00 0.00 33 1009.5
20260509231922 82 249 3.5 4.3 0.00 0.00 0.00 32 1009.8
20260509231423 82 248 2.6 5.2 0.00 0.00 0.00 31 1009.5
20260509230923 82 233 2.6 4.3 0.00 0.00 0.00 31 1009.5
20260509230422 82 247 2.6 4.3 0.00 0.00 0.00 33 1009.5
20260509225922 82 223 4.3 4.3 0.00 0.00 0.00 35 1009.5
20260509225422 82 226 2.6 4.3 0.00 0.00 0.00 33 1009.5
20260509224922 83 231 2.6 5.2 0.00 0.00 0.00 34 1009.5
20260509224422 82 274 2.6 4.3 0.00 0.00 0.00 33 1009.8
20260509223922 82 282 2.6 4.3 0.00 0.00 0.00 31 1009.5
20260509223422 82 194 4.3 6.1 0.00 0.00 0.00 30 1009.5
20260509222922 81 308 1.7 2.6 0.00 0.00 0.00 30 1009.8
20260509222422 81 310 3.5 3.5 0.00 0.00 0.00 31 1009.8
20260509221923 81 338 2.6 4.3 0.00 0.00 0.00 33 1009.5
20260509221422 81 261 5.2 7.0 0.00 0.00 0.00 32 1009.8
20260509220922 81 245 2.6 6.1 0.00 0.00 0.00 32 1009.8
20260509220422 81 314 2.6 4.3 0.00 0.00 0.00 32 1009.8
20260509215922 81 260 2.6 6.1 0.00 0.00 0.00 32 1009.8
20260509215422 80 189 0.0 3.5 0.00 0.00 0.00 29 1010.2
20260509214923 81 273 4.3 4.3 0.00 0.00 0.00 32 1009.5
20260509214422 80 268 4.3 4.3 0.00 0.00 0.00 32 1009.8
20260509213922 82 258 6.1 7.8 0.00 0.00 0.00 32 1009.5
20260509213425 81 197 3.5 4.3 0.00 0.00 0.00 32 1009.8
20260509212922 80 279 3.5 5.2 0.00 0.00 0.00 33 1009.8
20260509212422 80 253 3.5 5.2 0.00 0.00 0.00 33 1009.8
20260509211923 80 274 5.2 9.6 0.00 0.00 0.00 33 1009.5
20260509211424 80 248 3.5 4.3 0.00 0.00 0.00 32 1009.8
20260509210922 81 282 7.0 7.0 0.00 0.00 0.00 34 1009.8
20260509210422 81 272 7.0 7.8 0.00 0.00 0.00 34 1009.8
20260509205923 80 215 7.0 7.0 0.00 0.00 0.00 31 1010.2
20260509205422 80 339 2.6 4.3 0.00 0.00 0.00 32 1010.2
20260509204922 80 291 3.5 5.2 0.00 0.00 0.00 32 1010.2
20260509204422 80 256 4.3 7.8 0.00 0.00 0.00 34 1010.2
20260509203923 81 264 4.3 8.7 0.00 0.00 0.00 34 1010.2
20260509203423 80 227 3.5 4.3 0.00 0.00 0.00 35 1010.2
20260509202922 80 247 4.3 7.0 0.00 0.00 0.00 33 1010.2
20260509202422 80 243 5.2 5.2 0.00 0.00 0.00 34 1010.5
20260509201922 80 206 0.0 6.1 0.00 0.00 0.00 35 1010.5
20260509201422 80 265 8.7 8.7 0.00 0.00 0.00 31 1010.5
20260509200922 79 251 0.9 2.6 0.00 0.00 0.00 32 1010.5
20260509200422 80 268 4.3 7.8 0.00 0.00 0.00 34 1010.5
20260509195922 80 256 2.6 2.6 0.00 0.00 0.00 36 1010.2
20260509195422 79 248 1.7 4.3 0.00 0.00 0.00 32 1010.5
20260509194922 80 246 4.3 11.3 0.00 0.00 0.00 33 1010.8
20260509194422 80 182 2.6 7.8 0.00 0.00 0.00 32 1010.8
20260509193922 80 222 4.3 4.3 0.00 0.00 0.00 35 1011.2
20260509193422 79 167 2.6 4.3 0.00 0.00 0.00 35 1010.8
20260509192922 79 324 5.2 7.0 0.00 0.00 0.00 33 1011.2
20260509192422 80 274 5.2 7.8 0.00 0.00 0.00 33 1010.8
20260509191922 80 300 1.7 7.8 0.00 0.00 0.00 35 1010.8
20260509191422 80 266 4.3 6.1 0.00 0.00 0.00 33 1010.5
20260509190922 79 258 2.6 2.6 0.00 0.00 0.00 36 1010.8
20260509190422 79 310 2.6 5.2 0.00 0.00 0.00 34 1011.2
20260509185922 79 261 3.5 6.1 0.00 0.00 0.00 32 1010.8
20260509185422 79 252 6.1 7.8 0.00 0.00 0.00 36 1011.2
20260509184923 79 288 4.3 8.7 0.00 0.00 0.00 32 1011.2
20260509184423 79 309 3.5 5.2 0.00 0.00 0.00 36 1010.8
20260509183922 79 287 4.3 7.0 0.00 0.00 0.00 34 1010.8
20260509183423 78 225 3.5 9.6 0.00 0.00 0.00 35 1011.2
20260509182923 79 268 5.2 8.7 0.00 0.00 0.00 32 1011.2
20260509182422 78 332 6.1 9.6 0.00 0.00 0.00 34 1010.8
20260509181922 78 331 4.3 7.8 0.00 0.00 0.00 36 1011.2
20260509181422 78 329 6.1 7.8 0.00 0.00 0.00 33 1011.2
20260509180923 78 358 4.3 6.1 0.00 0.00 0.00 40 1011.2
20260509180423 78 274 3.5 5.2 0.00 0.00 0.00 37 1011.2
20260509175925 78 271 1.7 7.8 0.00 0.00 0.00 37 1011.2
20260509175427 78 346 1.7 7.8 0.00 0.00 0.00 34 1011.2